STARLINK-11591, 63116

Orbit data source: Space-Track

STARLINK-11591, 63116 is a payload satellite owned by SpaceX/Seattle (US) in LEO that was launched on Thu, 27 Feb 2025 UTC via an FALCON 9 launch vehicle from the Air Force Eastern Test Range (AFETR). Payload-class satellites include a variety of spacecraft equipped with specific instruments for various scientific and technological missions. These include communications satellites like Starlink; space stations such as the ISS; scientific satellites like the Hubble; Earth observation satellites from companies like Planet Labs, Umbra, and HawkEye 360; GPS; miniature CubeSats for education and research; and military/defense satellites.

Loading next visibility...
Identifier
63116, 2025-039N
Orbit
LEO
Last TLE update
16 hours ago
Origin
Manufacturer
SpaceX/Seattle
Mission
Operational Commercial Communications
Bus & Motor
STARLINK V2M, Unknown motor
Mass
730 kg wet, ~700 kg dry
Launch date (UTC)
2025-02-27 (4 months ago)
Launch vehicle
FALCON 9
Launch site
Air Force Eastern Test Range (AFETR)
Object type
Payload
Rocket body
Debris
Shape & HBR
Box + 2 Pan, 29 m
Radar Cross Section
36.964 m², Large (>1 m²)

Expand to show TLE details & history

TLE from 16 hours ago
0 STARLINK-11591
1 63116U 25039N   25181.73443707  .00153101  00000-0  11683-2 0  9990
2 63116  43.0029 315.1724 0004339 271.3911  88.6460 15.70964274 19998
Epoch: 2025-06-30T17:37Z
TLE epoch observation values (Epoch: 2025-06-30T17:37:35.362Z)
Latitude
-0.00001°
Longitude
131.73506°
Altitude
355.844 km
Speed
7.698 km/s
True Right ascension
21h 00m 41s
True Declination
0° 00' 00"
Sunlit
Object was in full shadow at epoch
Visualization orbit readout
Latitude
-42.54483°
Longitude
49.48591°
Altitude
365.718 km
Speed
7.692 km/s
Apparent Right ascension
12h 38m 42s
Apparent Declination
-50° 19' 05"
Sunlit
Object is in full shadow
Visualization observer readout
Local Sidereal Time
21:42:18
Azimuth
236.328° WSW
Elevation
-57.728°
Doppler factor
1
Orbital elements
Apogee altitude
361.044 km
Perigee altitude
355.198 km
Semi-major axis
6,736.258 km
Eccentricity
0.00043
Inclination
43.0029°
RAAN
315.1724°
Arg. of periapsis
271.3911°
True anomaly
Unknown
Mean anomaly
88.646°
Eccentric anomaly
Unknown
Mean motion
3.92568 °/min
Orbital period
91.7 mins
BSTAR
0.0011683
Loading maneuver chart data...
Loading SW <> Apogee altitude chart data...
Loading historical data...
Loading historical data...
Loading historical data...
Loading historical data...
Loading historical data...
Loading historical data...
Loading historical data...

STARLINK-11591 Visibility forecast

Observer location: undefined°, undefined°

Span
Click to sort rows by Start time (UTC) header in descending order
Start Az.
Max El. time (UTC)
Max El. Az.
Max El.
End time (UTC)
End Az.
4 mins2025-07-01 12:08:55.522Z207.78° SW2025-07-01 12:10:55.522Z152.251° SSE26.344°2025-07-01 12:12:55.522Z94.614° ESE
4 mins2025-07-01 15:21:55.522Z305.36° NW2025-07-01 15:22:55.522Z342.928° N34.045°2025-07-01 15:25:55.522Z78.295° E
4 mins2025-07-01 16:57:55.522Z281.157° WNW2025-07-01 16:59:55.522Z139.043° SSE39.268°2025-07-01 17:01:55.522Z117.559° SE
|